Погода Шауляй

Погода Шауляй : погода сейчас, прогноз погоды и архив. Всё, что Вы хотите узнать о погоде Шауляй!

Поиск расширенной информации на нашем сайте:

Полезная информация: Подробное описание очистка вентиляции от жировых отложений тут.

Другие новости

Новости СМИ2

Главная страница сайта

Новости сайта

03.07.2017

Напоминаем, что на нашем специализированном сайте Метеоцентр.Азия вы можете получить высокодетализированные автоматические прогнозы погоды по пунктам России, СНГ и мира в авиационном формате (включающие направление и скорость ветра, видимость, явления погоды, количество и форму облачности, нижнюю и верхнюю границу облачности).

Рекомендуем: лимузины дешево москва

Погода Шауляй - сегодня

Время (UTC), дата Ветер
(°,м/с) 
Видим.   Явления Облачность Т
(°С)
Тd
(°С)
f(%) Тe
(°С)
Pmin
(гПа)
dP
(гПа)
Po
(мм)
O2
(г/м3)
Тmin Tmax R s Состояние
почвы
21 19.11.17 200 (Ю) 2-5{07}  16000 м  {ливн. осадки}  9/9 800 м 
[Sc]
+3 +2 93 +2  999.3  0.9  740  294           
00 20.11.17 200 (Ю) 1-3{06}  13000 м  слаб. ливневой дождь  10/10 270 м кучево-дожд. 
[Cb cap]
+2.8 +1.5 91 +4  999.7  0.4  740  295      0.0     
03 20.11.17 тихо () -2{04}  16000 м  {ливн. осадки}  10/10 240 м кучево-дожд. 
[Cb cap]
+2.5 +1.5 93 +3  1000.6  0.9  741  295           
06 20.11.17 тихо () -2{04}  8000 м  дымка{ливн. осадки}  10/10 1500 м 
[Sc]
+2.4 +1.6 94 +2  1001.5  0.9  741  296  +2.3    0.7    мокрая 
09 20.11.17 200 (Ю) 2-4{04}  5000 м  слаб. ливневой дождь  10/10 600 м кучево-дожд. 
[Cb cap]
+3 +2.2 94 +2  1002.9  1.4  742  295           
12 20.11.17 270 (З) 2-3{05}  19000 м  в посл. час ливневой дождь  10/10 420 м кучево-дожд. 
[Cb cap]
+2.9 +1.9 93 +2  1003.5  0.6  743  296         
15 20.11.17 330 (СЗ) 1-2{03}  10 км  слаб. ливневой дождь  10/10 180 м кучево-дожд. 
[Cb cap]
+2.3 +1.5 94 +3  1004.9  1.3  744  297           
18 20.11.17 тихо () -2{03}  5000 м  слаб. ливневой дождь  10/10 270 м кучево-дожд. 
[Cb cap]
+1 +0.5 96 +1  1006.4  1.4  745  299    +3.5     
21 20.11.17 тихо () -2{02}  3700 м  слаб. морось{ливн. осадки}  10/10 120 м 
[St]
+1.4 +1.1 98 +1  1007.4  746  299           
00 21.11.17 тихо () -0{06}  13000 м  {ливн. осадки, морось}  9/9 660 м 
[Sc]
+1.4 +0.6 94 +1  1008.2  0.8  746  299      0.4     
03 21.11.17 тихо () -2{02}  19000 м    9/9 420 м 
[Sc]
+1.3 +0.8 96 +1  1008.6  0.4  746  299           
06 21.11.17 260 (З) 1-3{04}  5000 м  слаб. ливневой дождь со снегом  10/10 300 м кучево-дожд. 
[Cb cap]
+1.2 +0.7 96 +2  1009.1  0.5  747  299  +1    0.8    влажная 
09 21.11.17 250 (З) 2-4{04}  18000 м  {ливн. осадки}  10/10 480 м кучево-дожд. 
[Cb cap]
+1.6 +0.8 94 +1  1010.1  748  299           
12 21.11.17 250 (З) 3-6{06}  8000 м  слаб. ливневой дождь  10/10 150 м кучево-дожд. 
[Cb cap]
+2.2 +1.2 93 +1  1009.7  -0.4  747  298      0.2     
15 21.11.17 тихо () -3{06}  11000 м  {ливн. осадки}  9/9 800 м 
[Sc]
+2 +1.2 94 +2  1010.1  0.4  748  299           
18 21.11.17 240 (ЮЗ) 1-3{05}  7000 м  дымка{ливн. осадки}  ясно 
-0.2 -0.8 96 1010.6  0.4  748  302    +2.3  0.5     
21 21.11.17 230 (ЮЗ) 1-3{04}  6000 м  дымка  3/3 1000 м 
[Sc]
-0.9 -1.5 96 1011.3  0.7  748  303           
00 22.11.17 260 (З) 1-3{03}  10 км    10/10 100 м 
[St]
+0 -0.3 98 +1  1012  0.7  749  302           
03 22.11.17 тихо () -2{04}  17000 м    10/10 1080 м 
[Sc]
-0.2 -0.8 96 -0  1012.6  0.6  749  302           
06 22.11.17 210 (ЮЗ) 1-3{04}  6000 м  дымка  9/9 180 м 
[Sc]
+0 -0.6 96 +1  1013.1  0.5  750  302  -1.5        замёрзшая 
09 22.11.17 190 (Ю) 2-5{05}  10 км    10/10 180 м 
[St]
+0.2 -0.9 92 -1  1014.2  1.1  751  302           
12 22.11.17 180 (Ю) 3-5{06}  18000 м    9/9 330 м 
[St]
+0.4 -1.3 88 -1  1014.7  0.5  751  302           
15 22.11.17 170 (Ю) 3-5{07}  16000 м    9/9 400 м 
[Sc]
-0.5 -2.3 88 -2  1015.2  0.4  751  304           
18 22.11.17 180 (Ю) 3-7{07}  15000 м    10/10 330 м 
[St]
-0.4 -2.2 88 -2  1015.5  0.3  751  303    +0.7       
21 22.11.17 160 (Ю) 5-8{08}  17000 м    8/4 360 м средняя 
[St|Ac As]
-0.8 -2.3 90 -4  1015.3  -0.2  751  304           
Время (UTC), дата Ветер
(°,м/с) 
Видим.   Явления Облачность Т
(°С)
Тd
(°С)
f(%) Тe
(°С)
Pmin
(гПа)
dP
(гПа)
Po
(мм)
O2
(г/м3)
Тmin Tmax R s Состояние
почвы

Для получения пояснительной информации подведите курсор к названию столбца.

ПОГОДА Шауляй - архив

Всё, что Вы хотите узнать о погоде Шауляй - удобно и подробно!

Выберите нужную дату (начиная с 1 января 2015* года) и нажмите кнопку "Найти".
Будут отображены архивные сводки погоды по пункту Шауляй, начиная с указанной даты.


Отображать данные в формате CSV (для использования в таблицах Excel)


Внимание! Наш архив погоды предназначен исключительно для личного некоммерческого использования в познавательных целях. Если Вам необходимы официальные справки о состоянии погоды (для производственных, юридических, коммерческих и т.п. целей), обращайтесь в органы Росгидромета.

*Примечание: данная дата относится к архиву по метеостанциям СССР (Россия, СНГ, Балтия).
Архив по метеостанциям Зарубежной Европы и Азии (кроме Китая) хранится 10 дней, по другим регионам земного шара (Китай, Африка, Америка, Австралия, Океания) - 1 день.

Шауляй - район местоположения метеостанции


Название, широта, долгота, высота метеостанции:
Шауляй 55.9°ш. 23.3°д. 107 м над ур. моря [Литва]

Дополнительная информация

В oтличие oт бoльшинства пoгoдных сайтoв мы публикуем пoдрoбную метеoинфoрмацию в детальнoм прoфессиoнальнoм фoрмате.

Характеристики температуры и влажнoсти вoздуха измеряются на высoте 2 м в тени вдали oт зданий и деревьев.
Скoрoсть ветра измеряется на высoте 10 м (на урoвне рoста челoвека скoрoсть ветра ниже в 1.5-2 раза). Если метеoстанция нахoдится в гoрoде или в лесу, тo скoрoсть ветра занижена на 2-4 м/с пo сравнению с oткрытым местoм. Скoрoсть ветра над акватoриями крупных рек и oзёр, а также на вершинах хoлмoв на 2-5 м/с выше, чем в oбычных услoвиях.
Атмoсфернoе давление в разных тoчках местнoсти мoжет значительнo oтличаться oт давления на метеoстанции, в зависимoсти oт услoвий рельефа (при пoдъёме на 10 м давление пoнижается примернo на 1 мм рт.ст.).